Home   Weather   Kaohsiung   Past weeks

Flag for Taiwan Past Weather in Kaohsiung, Taiwan — Yesterday and Last 2 Weeks

Now
64 °F

Partly cloudy.


Feels Like: 64 °F
Forecast: 59 / 77 °F
Wind: 5 mph from North

Location: Kaohsiung International Airport

Current Time: Jan 17, 2017 at 3:33:09 am

Latest Report: Jan 17, 2017 at 2:00 am


Visibility: 4 mi

Pressure: 30.15 "Hg

Humidity: 78%

Dew Point: 57 °F

Location of KaohsiungLocation

Past Weather in Kaohsiung — Graph

°F

Kaohsiung Temperature Yesterday

Maximum temperature yesterday: 75 °F (at 12:30 pm)
Minimum temperature yesterday: 63 °F (at 2:00 am)
Average temperature yesterday: 69 °F

High & Low Weather Summary for the Past Weeks

 TemperatureHumidityPressure
High86 °F (Jan 7, 3:00 am)100% (Jan 2, 4:00 am)30.18 "Hg (Jan 2, 4:00 am)
Low63 °F (Jan 16, 2:00 am)52% (Jan 7, 3:00 am)29.83 "Hg (Jan 8, 1:30 pm)
Average72 °F75%30.02 "Hg
* Reported Jan 2 2:00 am — Jan 17 2:00 am, Kaohsiung, Weather by CustomWeather, © 2017

Note: Actual official high and low records may vary slightly from our data, if they occured in-between our weather recording intervals... More about our weather records

Advertising

Kaohsiung Weather History for the Previous 24 Hours

Scroll right to see more
 ConditionsComfort  
Time TempWeatherWind HumidityBarometerVisibility
2:00 am
Tue, Jan 17
64 °FPartly cloudy.5 mph78%30.15 "Hg4 mi
1:00 am64 °FPartly cloudy.2 mph78%30.15 "Hg4 mi
12:00 am64 °FPartly cloudy.2 mph78%30.15 "Hg4 mi
11:30 pm
Mon, Jan 16
66 °FPartly cloudy.2 mph73%30.15 "Hg4 mi
11:00 pm66 °FPassing clouds.3 mph73%30.18 "Hg5 mi
10:30 pm66 °FPassing clouds.3 mph73%30.18 "HgN/A
10:00 pm66 °FPassing clouds.3 mph73%30.15 "HgN/A
9:30 pm68 °FPassing clouds.3 mph69%30.15 "HgN/A
9:00 pm68 °FPassing clouds.3 mph69%30.15 "HgN/A
8:30 pm68 °FPassing clouds.6 mph69%30.15 "HgN/A
8:00 pm68 °FPartly cloudy.3 mph69%30.15 "HgN/A
7:30 pm68 °FPartly cloudy.6 mph73%30.12 "HgN/A
7:00 pm68 °FPartly cloudy.7 mph73%30.12 "HgN/A
6:30 pm68 °FPartly cloudy.6 mph73%30.09 "HgN/A
6:00 pm70 °FPassing clouds.7 mph69%30.09 "HgN/A
5:30 pm70 °FScattered clouds.8 mph69%30.07 "HgN/A
5:00 pm70 °FScattered clouds.9 mph69%30.07 "HgN/A
4:30 pm73 °FScattered clouds.8 mph61%30.07 "HgN/A
4:00 pm73 °FScattered clouds.8 mph57%30.07 "HgN/A
3:30 pm75 °FScattered clouds.8 mph54%30.04 "HgN/A
3:00 pm75 °FScattered clouds.9 mph54%30.07 "HgN/A
2:30 pm75 °FScattered clouds.9 mph54%30.07 "HgN/A
2:00 pm75 °FPartly sunny.8 mph54%30.07 "HgN/A
1:30 pm75 °FPartly sunny.7 mph54%30.07 "HgN/A
1:00 pm73 °FScattered clouds.7 mph57%30.09 "Hg5 mi
12:30 pm75 °FPassing clouds.7 mph54%30.09 "Hg4 mi
12:00 pm73 °FHaze.7 mph57%30.12 "Hg3 mi
11:30 am73 °FHaze.8 mph57%30.12 "Hg3 mi
11:00 am73 °FHaze.6 mph57%30.12 "Hg3 mi
10:30 am73 °FHaze.7 mph57%30.15 "Hg3 mi
10:00 am72 °FHaze.5 mph61%30.15 "Hg3 mi
9:30 am70 °FHaze.3 mph64%30.15 "Hg3 mi
9:00 am68 °FHaze.2 mph69%30.15 "Hg3 mi
8:52 am68 °FHaze.2 mph64%30.15 "Hg3 mi
8:00 am64 °FScattered clouds.3 mph73%30.15 "Hg4 mi
7:30 am64 °FBroken clouds.3 mph73%30.15 "Hg4 mi
7:00 am63 °FBroken clouds.5 mph77%30.12 "Hg4 mi
6:30 am63 °FPassing clouds.6 mph77%30.12 "Hg4 mi
6:00 am63 °FPartly cloudy.7 mph77%30.12 "HgN/A
5:00 am63 °FPassing clouds.7 mph77%30.12 "HgN/A
4:00 am63 °FPassing clouds.6 mph77%30.09 "HgN/A
3:00 am63 °FPartly cloudy.6 mph77%30.12 "HgN/A
Weather by CustomWeather, © 2017

See weather overviewHow to use our weather pages